Weather in Konergino

Russia / Chukotka Autonomous Okrug     65°54′10″N   178°50′45″W
temp.,
°C
wind,
m/s
gust,
m/s
humid.,
%
clouds,
%
prec.,
mm/h
press.,
hPa
HPBL,
m
25 january, tue
tue2500:00−34ne2210036 0.0 100321
03:00−33nne229914 0.0 100225
06:00−31nne469213 0.0 100363
09:00−30nne599012 0.0 1005123
12:00−31nne36926 0.0 1007101
15:00−32nne33947 0.0 100926
18:00−33nne229513 0.0 101248
21:00−34ne1110014 0.0 101518
26 january, wed
wed2600:00−35ene119832 0.0 101818
03:00−36e119936 0.0 102015
06:00−37ene1110061 0.0 102316
09:00−37ene1110074 0.0 102616
12:00−36ene229971 0.0 102825
15:00−34ne1194100 0.0 103047
18:00−35ene119828 0.0 103218
21:00−36ene1110029 0.0 103317
27 january, thu
thu2700:00−36ne1110029 0.0 103516
03:00−36ne2210029 0.0 103619
06:00−37ne2210031 0.0 103721
09:00−37ne2210025 0.0 103825
12:00−35ne229914 0.0 103936
15:00−34ne2210014 0.0 103931
18:00−33nne229943 0.0 103936
21:00−32ne2210079 0.0 103932
28 january, fri
fri2800:00−31nne119732 0.0 103922
03:00−30nne119565 0.0 103722
06:00−29ene119598 0.0 103722
09:00−26nne1188100 0.0 103666
12:00−25ne118888 0.0 103662
15:00−25ne119491 0.0 103521
18:00−26ene1196100 0.0 103519
21:00−27ene11100100 0.0 103519
29 january, sat
sat2900:00−25ne1198100 0.0 103527
03:00−26ene1110026 0.0 103418
06:00−28ne1110014 0.0 103428
09:00−28ne1110098 0.0 103417
12:00−27ne1110096 0.0 103420
15:00−26ne11100100 0.0 103316
18:00−26ene11100100 0.0 103219
21:00−27ene1110087 0.0 103225